Location: Gleizolles
(44.4833°N, 6.7667°E)
Time: 21:48:26
(UTC+00:00)

Tiros 1 despin weight - Pass Details

Date: 30 June 2024
Orbit: 576 x 620 km, 48.2° (Epoch: 19 July)

Event Time Altitude Azimuth Distance (km) Brightness Sun altitude
Rises 14:19:10 0° 291° (WNW) 2,897 ? 50.7°
Reaches altitude 10° 14:21:34 10° 285° (WNW) 1,988 ? 50.2°
Maximum altitude 14:25:54 44° 214° (SW) 861 ? 49.5°
Drops below altitude 10° 14:30:13 10° 142° (SE) 1,970 ? 48.8°
Sets 14:32:35 0° 136° (SE) 2,867 ? 48.4°
